Weather History for Grand Rapids, MN

Change the Weather History Date:

Sunday, January 12, 2014

  Actual Average Record
Temperature  
Mean Temperature 27 °F -  
Max Temperature 35 °F 16 °F 46 °F (1986)
Min Temperature 19 °F -4 °F -34 °F (1954)
Degree Days  
Heating Degree Days 38    
Moisture  
Dew Point 24 °F    
Average Humidity 84    
Maximum Humidity 93    
Minimum Humidity 70    
Precipitation  
Precipitation 0.00 in - - ()
Sea Level Pressure  
Sea Level Pressure 29.33 in    
Wind  
Wind Speed 7 mph (South)    
Max Wind Speed 20 mph    
Max Gust Speed 26 mph    
Visibility 9 miles    
Events      
Averages and records for this station are not official NWS values.
T = Trace of Precipitation, MM = Missing Value Source: NWS Daily Summary

Daily Weather History Graph

Daily Weather History Graph

Search for Another Location

Airport:

Trip Planner

Search our weather history database for the weather conditions in past years. The results will help you decide how hot, cold, wet, or windy it might be!

Date:

Astronomy

Jan. 12, 2014 Rise Set
Actual Time 7:57 AM CST 4:47 PM CST
Civil Twilight 7:23 AM CST 5:22 PM CST
Nautical Twilight 6:44 AM CST 6:00 PM CST
Astronomical Twilight 6:08 AM CST 6:36 PM CST
Moon 2:17 PM CST (1/12) 4:55 AM CST (1/12)
Length of Visible Light 9h 58m
Length of Day
8h 49m
Waxing Gibbous, 90% of the Moon is Illuminated
Jan 12
Waxing Gibbous
Jan 15
Full
Jan 23
Last Quarter
Jan 30
New
Feb 6
First Quarter

Hourly Weather History & Observations

Time (CST) Temp. Windchill Dew Point Humidity Pressure Visibility Wind Dir Wind Speed Gust Speed Precip Events Conditions
12:15 AM 19.4 °F - 17.6 °F 93% 29.48 in 9.0 mi Calm Calm - N/A   Scattered Clouds
12:35 AM 19.4 °F - 17.6 °F 93% 29.48 in 9.0 mi Calm Calm - N/A   Partly Cloudy
12:55 AM 19.4 °F - 17.6 °F 93% 29.45 in 8.0 mi Calm Calm - N/A   Mostly Cloudy
1:15 AM 19.4 °F - 17.6 °F 93% 29.44 in 8.0 mi Calm Calm - N/A   Overcast
1:35 AM 19.4 °F - 17.6 °F 93% 29.44 in 8.0 mi Calm Calm - N/A   Overcast
1:55 AM 19.4 °F - 17.6 °F 93% 29.44 in 8.0 mi Calm Calm - N/A   Overcast
2:15 AM 19.4 °F 9.5 °F 17.6 °F 93% 29.44 in 8.0 mi SSE 8.1 mph - N/A   Overcast
2:35 AM 19.4 °F 9.5 °F 17.6 °F 93% 29.44 in 8.0 mi SSE 8.1 mph - N/A   Overcast
2:55 AM 19.4 °F 10.4 °F 17.6 °F 93% 29.42 in 8.0 mi SE 6.9 mph - N/A   Overcast
3:15 AM 21.2 °F 12.6 °F 17.6 °F 86% 29.42 in 8.0 mi SE 6.9 mph - N/A   Overcast
3:35 AM 21.2 °F 11.7 °F 17.6 °F 86% 29.40 in 7.0 mi SE 8.1 mph - N/A   Overcast
3:55 AM 21.2 °F 10.9 °F 19.4 °F 93% 29.39 in 7.0 mi SSE 9.2 mph - N/A   Overcast
4:15 AM 21.2 °F 11.7 °F 19.4 °F 93% 29.37 in 8.0 mi SE 8.1 mph - N/A   Overcast
4:35 AM 21.2 °F 9.5 °F 19.4 °F 93% 29.34 in 8.0 mi SSE 11.5 mph 16.1 mph N/A   Overcast
4:55 AM 23.0 °F 11.7 °F 19.4 °F 86% 29.33 in 10.0 mi SSE 11.5 mph - N/A   Overcast
5:15 AM 23.0 °F 11.7 °F 19.4 °F 86% 29.30 in 10.0 mi SSE 11.5 mph - N/A   Mostly Cloudy
5:35 AM 23.0 °F 11.7 °F 21.2 °F 93% 29.29 in 10.0 mi SSE 11.5 mph 16.1 mph N/A   Clear
5:55 AM 24.8 °F 13.4 °F 21.2 °F 86% 29.28 in 10.0 mi SSE 12.7 mph - N/A   Clear
6:15 AM 24.8 °F 13.4 °F 19.4 °F 80% 29.29 in 10.0 mi South 12.7 mph 19.6 mph N/A   Clear
6:35 AM 24.8 °F 12.4 °F 21.2 °F 86% 29.27 in 10.0 mi South 15.0 mph - N/A   Scattered Clouds
6:55 AM 24.8 °F 10.7 °F 21.2 °F 86% 29.25 in 10.0 mi SSE 19.6 mph 24.2 mph N/A   Mostly Cloudy
7:15 AM 24.8 °F 10.7 °F 21.2 °F 86% 29.25 in 10.0 mi SSE 19.6 mph 26.5 mph N/A   Mostly Cloudy
7:35 AM 24.8 °F 12.9 °F 21.2 °F 86% 29.26 in 10.0 mi South 13.8 mph - N/A   Mostly Cloudy
7:55 AM 26.6 °F 15.2 °F 21.2 °F 80% 29.26 in 10.0 mi South 13.8 mph 18.4 mph N/A   Overcast
8:15 AM 26.6 °F 14.3 °F 21.2 °F 80% 29.27 in 10.0 mi South 16.1 mph - N/A   Overcast
8:35 AM 26.6 °F 15.2 °F 21.2 °F 80% 29.27 in 9.0 mi South 13.8 mph 21.9 mph N/A   Overcast
8:55 AM 26.6 °F 19.1 °F 21.2 °F 80% 29.29 in 7.0 mi South 6.9 mph - N/A   Overcast
9:15 AM 26.6 °F 16.8 °F 23.0 °F 86% 29.28 in 7.0 mi SSE 10.4 mph - N/A   Overcast
9:35 AM 26.6 °F 15.7 °F 23.0 °F 86% 29.27 in 7.0 mi South 12.7 mph 17.3 mph N/A   Overcast
9:55 AM 26.6 °F 16.2 °F 24.8 °F 93% 29.26 in 7.0 mi South 11.5 mph 16.1 mph N/A   Overcast
10:15 AM 26.6 °F 16.8 °F 24.8 °F 93% 29.27 in 7.0 mi South 10.4 mph - N/A   Mostly Cloudy
10:35 AM 28.4 °F 18.5 °F 24.8 °F 86% 29.29 in 7.0 mi South 11.5 mph - N/A   Mostly Cloudy
10:55 AM 28.4 °F 19.7 °F 24.8 °F 86% 29.29 in 8.0 mi South 9.2 mph - N/A   Mostly Cloudy
11:15 AM 28.4 °F 19.7 °F 24.8 °F 86% 29.29 in 9.0 mi SSW 9.2 mph - N/A   Mostly Cloudy
11:35 AM 28.4 °F 20.4 °F 24.8 °F 86% 29.28 in 10.0 mi South 8.1 mph - N/A   Scattered Clouds
11:55 AM 30.2 °F 21.3 °F 26.6 °F 86% 29.26 in 10.0 mi South 10.4 mph - N/A   Partly Cloudy
12:15 PM 30.2 °F 21.9 °F 26.6 °F 86% 29.26 in 10.0 mi South 9.2 mph - N/A   Partly Cloudy
12:35 PM 30.2 °F 23.4 °F 26.6 °F 86% 29.25 in 10.0 mi South 6.9 mph - N/A   Clear
12:55 PM 32.0 °F 24.8 °F 26.6 °F 80% 29.25 in 10.0 mi South 8.1 mph - N/A   Mostly Cloudy
1:15 PM 33.8 °F 26.4 °F 28.4 °F 81% 29.25 in 10.0 mi SSW 9.2 mph - N/A   Mostly Cloudy
1:35 PM 33.8 °F 27.7 °F 28.4 °F 81% 29.25 in 10.0 mi SSW 6.9 mph - N/A   Mostly Cloudy
1:55 PM 35.6 °F 29.9 °F 28.4 °F 75% 29.26 in 10.0 mi SSW 6.9 mph - N/A   Scattered Clouds
2:15 PM 35.6 °F 29.9 °F 28.4 °F 75% 29.25 in 10.0 mi South 6.9 mph - N/A   Clear
2:35 PM 35.6 °F 29.2 °F 28.4 °F 75% 29.26 in 10.0 mi South 8.1 mph - N/A   Clear
2:55 PM 35.6 °F 28.6 °F 28.4 °F 75% 29.26 in 10.0 mi South 9.2 mph - N/A   Clear
3:15 PM 35.6 °F 29.2 °F 28.4 °F 75% 29.28 in 10.0 mi SSW 8.1 mph - N/A   Clear
3:35 PM 35.6 °F 29.9 °F 28.4 °F 75% 29.29 in 10.0 mi SSW 6.9 mph - N/A   Clear
3:55 PM 35.6 °F 28.6 °F 26.6 °F 70% 29.30 in 10.0 mi South 9.2 mph - N/A   Clear
4:15 PM 35.6 °F 29.9 °F 26.6 °F 70% 29.31 in 10.0 mi South 6.9 mph - N/A   Clear
4:35 PM 33.8 °F 27.0 °F 26.6 °F 75% 29.31 in 10.0 mi South 8.1 mph - N/A   Clear
4:55 PM 33.8 °F 28.6 °F 26.6 °F 75% 29.31 in 10.0 mi SSW 5.8 mph - N/A   Clear
5:15 PM 33.8 °F 28.6 °F 26.6 °F 75% 29.31 in 10.0 mi South 5.8 mph - N/A   Clear
5:35 PM 33.8 °F 27.7 °F 26.6 °F 75% 29.32 in 10.0 mi South 6.9 mph - N/A   Clear
5:55 PM 32.0 °F 24.8 °F 26.6 °F 80% 29.33 in 10.0 mi South 8.1 mph - N/A   Clear
6:15 PM 30.2 °F 21.3 °F 26.6 °F 86% 29.33 in 10.0 mi South 10.4 mph - N/A   Clear
6:35 PM 32.0 °F 26.4 °F 26.6 °F 80% 29.35 in 10.0 mi SSW 5.8 mph - N/A   Clear
6:55 PM 30.2 °F 24.3 °F 26.6 °F 86% 29.36 in 10.0 mi SSW 5.8 mph - N/A   Clear
7:15 PM 30.2 °F 23.4 °F 26.6 °F 86% 29.37 in 10.0 mi SSW 6.9 mph - N/A   Clear
7:35 PM 30.2 °F 24.3 °F 26.6 °F 86% 29.37 in 10.0 mi SSW 5.8 mph - N/A   Clear
7:55 PM 30.2 °F 25.4 °F 28.4 °F 93% 29.36 in 10.0 mi WSW 4.6 mph - N/A   Clear
8:15 PM 32.0 °F 27.5 °F 26.6 °F 80% 29.37 in 10.0 mi WSW 4.6 mph - N/A   Clear
8:35 PM 32.0 °F 27.5 °F 26.6 °F 80% 29.38 in 10.0 mi WSW 4.6 mph - N/A   Clear
8:55 PM 30.2 °F 23.4 °F 26.6 °F 86% 29.38 in 10.0 mi West 6.9 mph - N/A   Clear
9:15 PM 30.2 °F 24.3 °F 26.6 °F 86% 29.38 in 10.0 mi West 5.8 mph - N/A   Clear
9:35 PM 30.2 °F 23.4 °F 24.8 °F 80% 29.38 in 10.0 mi West 6.9 mph - N/A   Clear
9:55 PM 32.0 °F 23.6 °F 26.6 °F 80% 29.39 in 10.0 mi WNW 10.4 mph - N/A   Clear
10:15 PM 30.2 °F 21.9 °F 26.6 °F 86% 29.40 in 10.0 mi West 9.2 mph - N/A   Clear
10:35 PM 30.2 °F 23.4 °F 24.8 °F 80% 29.40 in 10.0 mi West 6.9 mph - N/A   Clear
10:55 PM 30.2 °F 21.3 °F 24.8 °F 80% 29.40 in 10.0 mi WNW 10.4 mph - N/A   Clear
11:15 PM 30.2 °F 20.8 °F 24.8 °F 80% 29.41 in 10.0 mi WNW 11.5 mph - N/A   Scattered Clouds
11:35 PM 30.2 °F 20.2 °F 24.8 °F 80% 29.41 in 10.0 mi WNW 12.7 mph 16.1 mph N/A   Overcast
11:55 PM 30.2 °F 20.8 °F 24.8 °F 80% 29.41 in 10.0 mi WNW 11.5 mph - N/A   Overcast